Location: Boda
(47.1872°N, 9.5454°E)
Time: 18:30:32
(UTC+00:00)

CZ-2D R/B - Pass Details

Date: 14 May 2021
Orbit: 791 x 845 km, 98.7° (Epoch: 15 June)

Event Time Altitude Azimuth Distance (km) Brightness Sun altitude
Rises 01:18:47 0° 12° (NNE) 3,392 6.7 -18.8°
Reaches altitude 10° 01:21:10 10° 11° (N) 2,447 5.7 -18.6°
Maximum altitude 01:26:34 73° 288° (WNW) 861 2.1 -18.1°
Enters shadow 01:29:08 31° 210° (SSW) 1,390 2.7 -17.9°
